When you browse on this site, cookies collect data to enhance your experience and personalize the content and advertising you see.
Visit our Privacy Policy to learn more. By continuing to use the site, you agree to this use of cookies and data.
  • In Hungary
  • List of Countries
  • For 7 days
  • Water Temperature
  • Satellite Maps
  • Weather Map
  • News
  • Weather Widgets
  • user-avatar
    Login

    Hourly Weather Baraki Barak

    Today, 22 April, Monday

    Time Temperature Precipitation Wind Pressure Humidity
    00:00 +16°C° 0 mm 2 mps 598 mmHg 52%
    01:00 +15°C° 0 mm 2 mps 598 mmHg 55%
    02:00 +15°C° 0 mm 2 mps 597 mmHg 58%
    03:00 +14°C° 0 mm 1 mps 597 mmHg 58%
    04:00 +14°C° 0 mm 1 mps 597 mmHg 59%
    05:00 +12°C° 0 mm 3 mps 597 mmHg 63%
    06:00 +14°C° 0 mm 2 mps 597 mmHg 58%
    07:00 +15°C° 0 mm 1 mps 598 mmHg 53%
    08:00 +15°C° 0 mm 1 mps 598 mmHg 47%
    09:00 +18°C° 0 mm 1 mps 599 mmHg 41%
    10:00 +19°C° 0 mm 1 mps 599 mmHg 35%
    11:00 +21°C° 0 mm 1 mps 600 mmHg 29%
    12:00 +21°C° 0 mm 2 mps 600 mmHg 27%
    13:00 +22°C° 0 mm 3 mps 600 mmHg 24%
    14:00 +24°C° 0 mm 3 mps 600 mmHg 21%
    15:00 +23°C° 0 mm 4 mps 600 mmHg 20%
    16:00 +25°C° 0 mm 5 mps 600 mmHg 18%
    17:00 +25°C° 0 mm 5 mps 600 mmHg 17%
    18:00 +23°C° 0 mm 5 mps 600 mmHg 20%
    19:00 +22°C° 0 mm 4 mps 600 mmHg 23%
    20:00 +22°C° 0 mm 3 mps 600 mmHg 26%
    21:00 +20°C° 0 mm 2 mps 600 mmHg 30%
    22:00 +19°C° 0 mm 2 mps 600 mmHg 34%
    23:00 +18°C° 0 mm 2 mps 600 mmHg 38%

    Tomorrow, 23 April, Tuesday

    Time Temperature Precipitation Wind Pressure Humidity
    00:00 +18°C° 0 mm 2 mps 599 mmHg 40%
    01:00 +18°C° 0 mm 1 mps 599 mmHg 41%
    02:00 +16°C° 0 mm 1 mps 599 mmHg 43%
    03:00 +16°C° 0 mm 1 mps 598 mmHg 43%
    04:00 +15°C° 0 mm 1 mps 598 mmHg 44%
    05:00 +15°C° 0 mm 1 mps 598 mmHg 45%
    06:00 +16°C° 0 mm 1 mps 598 mmHg 42%
    07:00 +16°C° 0 mm 1 mps 599 mmHg 38%
    08:00 +18°C° 0 mm 1 mps 600 mmHg 35%
    09:00 +19°C° 0 mm 1 mps 600 mmHg 33%
    10:00 +19°C° 0 mm 2 mps 600 mmHg 31%
    11:00 +20°C° 0 mm 2 mps 601 mmHg 29%
    12:00 +21°C° 0 mm 3 mps 601 mmHg 28%
    13:00 +22°C° 0 mm 3 mps 601 mmHg 28%
    14:00 +23°C° 0 mm 4 mps 601 mmHg 27%
    15:00 +22°C° 0.9 mm 4 mps 600 mmHg 34%
    16:00 +21°C° 0.9 mm 4 mps 599 mmHg 41%
    17:00 +20°C° 0.9 mm 4 mps 598 mmHg 47%
    18:00 +19°C° 1.2 mm 3 mps 599 mmHg 53%
    19:00 +18°C° 1.2 mm 3 mps 599 mmHg 59%
    20:00 +17°C° 1.2 mm 2 mps 599 mmHg 65%
    21:00 +16°C° 0.2 mm 2 mps 599 mmHg 66%
    22:00 +16°C° 0.2 mm 2 mps 599 mmHg 66%
    23:00 +16°C° 0.2 mm 2 mps 599 mmHg 66%

    Day after tomorrow, 24 April, Wednesday

    Time Temperature Precipitation Wind Pressure Humidity
    00:00 +16°C° 0.1 mm 2 mps 599 mmHg 67%
    01:00 +15°C° 0.1 mm 2 mps 598 mmHg 67%
    02:00 +15°C° 0.1 mm 2 mps 598 mmHg 68%
    03:00 +15°C° 0.3 mm 2 mps 598 mmHg 69%
    04:00 +14°C° 0.3 mm 2 mps 598 mmHg 70%
    05:00 +14°C° 0.3 mm 2 mps 598 mmHg 70%
    06:00 +15°C° 0.1 mm 2 mps 598 mmHg 68%
    07:00 +15°C° 0.1 mm 2 mps 599 mmHg 66%
    08:00 +15°C° 0.1 mm 2 mps 599 mmHg 64%
    09:00 +17°C° 0.2 mm 2 mps 599 mmHg 58%
    10:00 +18°C° 0.2 mm 3 mps 600 mmHg 53%
    11:00 +19°C° 0.2 mm 4 mps 600 mmHg 47%
    12:00 +20°C° 0.5 mm 4 mps 600 mmHg 47%
    13:00 +20°C° 0.5 mm 5 mps 599 mmHg 47%
    14:00 +20°C° 0.5 mm 6 mps 599 mmHg 47%
    15:00 +21°C° 0.6 mm 6 mps 599 mmHg 44%
    16:00 +21°C° 0.6 mm 7 mps 599 mmHg 41%
    17:00 +22°C° 0.6 mm 7 mps 599 mmHg 38%
    18:00 +20°C° 0 mm 6 mps 598 mmHg 43%
    19:00 +19°C° 0 mm 5 mps 598 mmHg 47%
    20:00 +17°C° 0 mm 3 mps 598 mmHg 52%
    21:00 +16°C° 0 mm 3 mps 598 mmHg 58%
    22:00 +14°C° 0 mm 3 mps 597 mmHg 64%
    23:00 +15°C° 0 mm 2 mps 597 mmHg 70%

    25 April, Thursday

    Time Temperature Precipitation Wind Pressure Humidity
    00:00 +14°C° 0 mm 2 mps 597 mmHg 70%
    01:00 +13°C° 0 mm 2 mps 596 mmHg 71%
    02:00 +13°C° 0 mm 2 mps 596 mmHg 71%
    03:00 +12°C° 0 mm 2 mps 596 mmHg 70%
    04:00 +12°C° 0 mm 2 mps 596 mmHg 69%
    05:00 +10°C° 0 mm 2 mps 596 mmHg 68%
    06:00 +12°C° 0 mm 2 mps 596 mmHg 62%
    07:00 +13°C° 0 mm 2 mps 597 mmHg 56%
    08:00 +13°C° 0 mm 2 mps 598 mmHg 50%
    09:00 +14°C° 0 mm 3 mps 598 mmHg 43%
    10:00 +15°C° 0 mm 4 mps 599 mmHg 36%
    11:00 +16°C° 0 mm 5 mps 599 mmHg 28%
    12:00 +17°C° 0 mm 6 mps 599 mmHg 26%
    13:00 +18°C° 0 mm 7 mps 600 mmHg 25%
    14:00 +19°C° 0 mm 9 mps 600 mmHg 23%
    15:00 +19°C° 0 mm 9 mps 599 mmHg 22%
    16:00 +19°C° 0 mm 9 mps 599 mmHg 22%
    17:00 +19°C° 0 mm 9 mps 599 mmHg 21%
    18:00 +17°C° 0 mm 8 mps 599 mmHg 25%
    19:00 +16°C° 0 mm 6 mps 599 mmHg 28%
    20:00 +15°C° 0 mm 5 mps 599 mmHg 31%
    21:00 +14°C° 0 mm 4 mps 599 mmHg 33%
    22:00 +13°C° 0 mm 3 mps 598 mmHg 36%
    23:00 +14°C° 0 mm 2 mps 598 mmHg 38%

    26 April, Friday

    Time Temperature Precipitation Wind Pressure Humidity
    00:00 +13°C° 0 mm 2 mps 598 mmHg 40%
    01:00 +12°C° 0 mm 2 mps 597 mmHg 42%
    02:00 +12°C° 0 mm 2 mps 597 mmHg 43%
    03:00 +10°C° 0 mm 2 mps 597 mmHg 44%
    04:00 +11°C° 0 mm 1 mps 596 mmHg 44%
    05:00 +10°C° 0 mm 1 mps 596 mmHg 45%
    06:00 +11°C° 0 mm 1 mps 597 mmHg 41%
    07:00 +12°C° 0 mm 2 mps 597 mmHg 37%
    08:00 +13°C° 0 mm 2 mps 598 mmHg 32%
    09:00 +14°C° 0 mm 2 mps 599 mmHg 29%
    10:00 +15°C° 0 mm 2 mps 599 mmHg 27%
    11:00 +17°C° 0 mm 2 mps 600 mmHg 24%
    12:00 +18°C° 0 mm 3 mps 600 mmHg 22%
    13:00 +19°C° 0 mm 3 mps 600 mmHg 20%
    14:00 +20°C° 0 mm 4 mps 599 mmHg 18%
    15:00 +20°C° 0 mm 4 mps 599 mmHg 18%
    16:00 +20°C° 0 mm 5 mps 599 mmHg 18%
    17:00 +20°C° 0 mm 6 mps 599 mmHg 18%
    18:00 +19°C° 0 mm 5 mps 599 mmHg 21%
    19:00 +18°C° 0 mm 4 mps 599 mmHg 24%
    20:00 +17°C° 0 mm 3 mps 599 mmHg 27%
    21:00 +16°C° 0 mm 3 mps 599 mmHg 30%
    22:00 +15°C° 0 mm 2 mps 599 mmHg 33%
    23:00 +15°C° 0 mm 2 mps 599 mmHg 35%

    27 April, Saturday

    Time Temperature Precipitation Wind Pressure Humidity
    00:00 +14°C° 0 mm 2 mps 599 mmHg 37%
    01:00 +14°C° 0 mm 2 mps 598 mmHg 38%
    02:00 +13°C° 0 mm 1 mps 598 mmHg 40%
    03:00 +13°C° 0 mm 1 mps 597 mmHg 41%
    04:00 +12°C° 0 mm 1 mps 597 mmHg 42%
    05:00 +12°C° 0 mm 1 mps 597 mmHg 44%
    06:00 +12°C° 0 mm 1 mps 597 mmHg 39%
    07:00 +13°C° 0 mm 1 mps 598 mmHg 35%
    08:00 +13°C° 0 mm 1 mps 598 mmHg 31%
    09:00 +14°C° 0 mm 1 mps 599 mmHg 29%
    10:00 +15°C° 0 mm 1 mps 599 mmHg 26%
    11:00 +16°C° 0 mm 1 mps 599 mmHg 24%
    12:00 +17°C° 0 mm 2 mps 599 mmHg 23%
    13:00 +18°C° 0 mm 2 mps 599 mmHg 21%
    14:00 +19°C° 0 mm 2 mps 599 mmHg 19%
    15:00 +19°C° 0 mm 3 mps 599 mmHg 19%
    16:00 +20°C° 0 mm 3 mps 599 mmHg 19%
    17:00 +20°C° 0 mm 3 mps 599 mmHg 18%
    18:00 +19°C° 0 mm 3 mps 599 mmHg 23%
    19:00 +18°C° 0 mm 3 mps 598 mmHg 27%
    20:00 +16°C° 0 mm 3 mps 598 mmHg 31%
    21:00 +16°C° 0 mm 3 mps 598 mmHg 33%
    22:00 +15°C° 0 mm 2 mps 598 mmHg 36%
    23:00 +14°C° 0 mm 2 mps 598 mmHg 38%
    Show more